Regional Weather Roundup
Issued by NWS

Home | Current Version | Previous Version | Text Only | Print | Product List | Glossary On
Versions: 1 2 3 4 5 6 7 8 9 10 11 12 13 14 15 16 17 18 19 20 21 22 23 24 25 26 27 28 29 30 31 32 33 34 35 36 37 38 39 40 41 42 43 44 45 46 47 48 49 50
000
ASUS43 KMKX 220000
RWRWI

WISCONSIN REGIONAL WEATHER ROUNDUP
NATIONAL WEATHER SERVICE MILWAUKEE/SULLIVAN WI
700 PM CDT SUN SEP 21 2014

NOTE: "FAIR" INDICATES FEW OR NO CLOUDS BELOW 12,000 FEET WITH NO
SIGNIFICANT WEATHER AND/OR OBSTRUCTIONS TO VISIBILITY.

WIZ001-002-006>008-014>016-023>028-220100-
NORTHWEST WISCONSIN

CITY           SKY/WX    TMP DP  RH WIND       PRES   REMARKS
SUPERIOR ARPT  CLEAR     61  43  51 N6        30.14R
ASHLAND        CLEAR     49  46  90 CALM      30.15R
6HR MIN TEMP:  49; 6HR MAX TEMP:  61;

HAYWARD        CLEAR     56  45  66 CALM      30.15R
6HR MIN TEMP:  55; 6HR MAX TEMP:  62;

SIREN          CLEAR     61  46  59 NW5       30.15S
RICE LAKE      CLEAR     59  43  55 NW3       30.16R
6HR MIN TEMP:  59; 6HR MAX TEMP:  63;

LADYSMITH      CLEAR     57  42  57 N5        30.16R
EAU CLAIRE     NOT AVBL
MENOMONIE      CLEAR     62  43  50 NW9       30.14S
NEW RICHMOND   CLEAR     60  44  55 NW5       30.16S
OSCEOLA        CLEAR     62  46  56 CALM      30.19R
$$

WIZ003>005-009-010-017-018-220100-
NORTH CENTRAL WISCONSIN

CITY           SKY/WX    TMP DP  RH WIND       PRES   REMARKS
WOODRUFF       CLEAR     50  40  68 N5        30.14R
RHINELANDER    CLEAR     46  37  71 NW3       30.15R
6HR MIN TEMP:  46; 6HR MAX TEMP:  55;

EAGLE RIVER    CLEAR     47  36  65 NW3       30.13R
LAND O LAKES   CLEAR     47  39  72 NW5       30.14R
PHILLIPS       CLEAR     49  41  73 CALM      30.14R
6HR MIN TEMP:  49; 6HR MAX TEMP:  55;

TOMAHAWK       CLEAR     49  37  64 CALM      30.14S
MEDFORD        CLEAR     51  41  68 N8        30.14R
MERRILL        CLEAR     51  39  62 N8        30.13R
$$

WIZ029-030-035-036-043>047-220100-
CENTRAL WISCONSIN

CITY           SKY/WX    TMP DP  RH WIND       PRES   REMARKS
WAUSAU         CLEAR     53  39  59 N7G18     30.11R
6HR MIN TEMP:  53; 6HR MAX TEMP:  59;

MOSINEE        NOT AVBL
MARSHFIELD     CLEAR     53  42  66 N7        30.13R
6HR MIN TEMP:  53; 6HR MAX TEMP:  63;

STEVENS POINT  CLEAR     54  41  60 NW6       30.12R
WAUPACA        CLEAR     58  43  59 NW3       30.10R
WAUTOMA        NOT AVBL
WISC RAPIDS    CLEAR     55  43  63 N7        30.13R
6HR MIN TEMP:  55; 6HR MAX TEMP:  64;

CAMP DOUGLAS   NOT AVBL
$$

WIZ011>013-019>022-031-037>040-048>050-220100-
NORTHEAST WISCONSIN

CITY           SKY/WX    TMP DP  RH WIND       PRES   REMARKS
ANTIGO         CLEAR     49  39  69 NW12      30.11R
STURGEON BAY   CLEAR     48  39  71 N14       30.09R
6HR MIN TEMP:  48; 6HR MAX TEMP:  55;

GREEN BAY      CLEAR     51  44  77 N6        30.09R
6HR MIN TEMP:  51; 6HR MAX TEMP:  59;

MANITOWOC      NOT AVBL
APPLETON       PTCLDY    52  43  71 N7        30.09R
CLINTONVILLE   CLEAR     52  39  62 N5        30.10R
OSHKOSH        PTCLDY    55  43  63 N9        30.08R
6HR MIN TEMP:  55; 6HR MAX TEMP:  60;

$$

WIZ032>034-041-042-053>061-220100-
SOUTHWEST WISCONSIN

CITY           SKY/WX    TMP DP  RH WIND       PRES   REMARKS
LA CROSSE      CLEAR     61  46  57 N8        30.13R
6HR MIN TEMP:  61; 6HR MAX TEMP:  69;

SPARTA         CLEAR     61  43  51 NW7       30.13R
VIROQUA        FAIR      59  45  60 NW9       30.13R
BOSCOBEL       PTCLDY    60  47  61 NW3       30.12R
6HR MIN TEMP:  60; 6HR MAX TEMP:  69;

PRAIRIE DU CHI CLEAR     63  44  49 NW7       30.12R
PLATTEVILLE    FAIR      61  46  56 NW9       30.11R
$$

WIZ056-057-062-063-064-067-068-220100-
SOUTH CENTRAL WISCONSIN

CITY           SKY/WX    TMP DP  RH WIND       PRES   REMARKS
BARABOO/DELLS  CLEAR     60  42  51 N7        30.10R
LONE ROCK      NOT AVBL
WATERTOWN      CLEAR     56  44  62 NW7G17    30.07R
MADISON        MOCLDY    58  45  62 N6        30.09R
6HR MIN TEMP:  58; 6HR MAX TEMP:  66;

MIDDLETON      FAIR      61  44  52 NW7       30.09R
MONROE         CLEAR     59  45  58 NW7       30.08R
JANESVILLE     CLEAR     63  43  48 N12       30.07R
$$

WIZ051-052-058>065-066-070>072-220100-
SOUTHEAST WISCONSIN

CITY           SKY/WX    TMP DP  RH WIND       PRES   REMARKS
MILWAUKEE      PTCLDY    55  41  59 N8        30.07R
6HR MIN TEMP:  55; 6HR MAX TEMP:  62; 6HR PCP: TRACE;

WAUKESHA       PTCLDY    54  43  66 NW12      30.08R
MILWAUKEE/TIMM CLEAR     54  41  62 N7        30.07R
RACINE         CLEAR     54  43  66 N10       30.08R
6HR MIN TEMP:  54; 6HR MAX TEMP:  64; 6HR PCP: TRACE;

BURLINGTON     CLEAR     55  43  63 N8        30.06R
KENOSHA        PTCLDY    54  44  69 N7        30.07R
6HR MIN TEMP:  54; 6HR MAX TEMP:  65; 6HR PCP:  0.01;

FOND DU LAC    CLEAR     54  43  66 N6        30.09R
6HR MIN TEMP:  54; 6HR MAX TEMP:  60;

SHEBOYGAN      CLEAR     53  42  66 N8        30.08R
6HR MIN TEMP:  53; 6HR MAX TEMP:  61;

WEST BEND      CLEAR     52  41  66 N5        30.07R
JUNEAU         CLEAR     55  44  67 NW5       30.09R
$$

LSZ147-162-220100-
LAKE SUPERIOR

STATION/POSITION TIME  TEMP    WIND        PRES    WAVE
                       AIR SEA DIR/SP/G            HT/PER
                 (UTC) (F)     (DEG/KT/KT) (MB)    (FT/S)
W MID LAKE BUOY  2250   49 47  220/ 12/ 12 1019.6R   2/ 6
DEVILS ISLAND    2300   54     250/  8/  9 1020.4R
PORT WING        2340   61      CALM  /  2 1020.7R
SAXON HARBOR     2340   51      CALM  /  2 1020.7S
$$

LMZ867-665-643>646-220100-
LAKE MICHIGAN

STATION/POSITION TIME  TEMP    WIND        PRES    WAVE
                       AIR SEA DIR/SP/G            HT/PER
                 (UTC) (F)     (DEG/KT/KT) (MB)    (FT/S)
N MID LAKE BUOY  2250   48 57  340/ 25/ 33 1016.8R   7/ 6
NORTHPORT PIER   2325   49     340/ 28     1018.3R
KEWAUNEE LAKESHO 2300   54     350/ 10/ 16 1016.7R
SHEBOYGAN LAKESH 2300   57 52  330/ 13/ 17 1017.7R
PORT WASHINGTON  2300   58     330/  4/ 15 1018.3R
ATWATER BUOY     2300   57     340/ 14/ 16 1018.7R
MILWAUKEE LAKESH 2300   57     360/ 11/ 18   N/A
S MID LAKE BUOY  2250   56 62  350/ 21/ 25 1016.2R   9/ 8
KENOSHA   LAKESH 2300   59     340/ 15/ 19 1016.6R
$$

TC  - TEMPERATURE IN CELSIUS
VSB - VISIBILITY IN STATUTE MILES
WCI - WIND CHILL INDEX
HX  - HEAT INDEX




USA.gov is the U.S. government's official web portal to all federal, state and local government web resources and services.